Location: Ferintosh
(52.7647°N, 112.9692°W)
Time: 04:39:29
(UTC+00:00)

S-56A Canister/Altair - Pass Details

Date: 29 May 2024
Orbit: 637 x 2488 km, 38.9° (Epoch: 23 June)

Event Time Altitude Azimuth Distance (km) Brightness Sun altitude
Rises 13:05:05 0° 243° (WSW) 6,115 11.5 13.6°
Reaches altitude 10° 13:09:35 10° 237° (WSW) 5,000 11.1 14.3°
Maximum altitude 13:21:54 40° 175° (S) 2,711 10.4 16.1°
Drops below altitude 10° 13:31:07 10° 111° (ESE) 3,759 12.1 17.4°
Sets 13:33:59 0° 104° (ESE) 4,499 12.6 17.8°
